Location: Unspecified
(0.0000°N, 0.0000°E)
Time: 22:15:22
(UTC+00:00)

S-56A Canister/Altair - Pass Details

Date: 10 October 2020
Orbit: 633 x 2499 km, 38.9° (Epoch: 27 October)

Event Time Altitude Azimuth Distance (km) Brightness Sun altitude
Rises 21:23:49 0° 281° (W) 5,129 12.2 -53.7°
Reaches altitude 10° 21:29:07 10° 263° (W) 3,726 11.4 -55.0°
Enters shadow 21:32:44 16° 242° (WSW) 2,988 10.8 -55.8°
Maximum altitude 21:34:33 17° 227° (SW) 2,768 - -56.3°
Drops below altitude 10° 21:38:59 10° 188° (S) 2,891 - -57.4°
Sets 21:42:22 0° 167° (SSE) 3,560 - -58.2°
